Location: Suzhou
(31.3110°N, 120.6180°E)
Time: 13:03:09
(UTC+08:00)

FO-29 - Pass Details

Date: 21 April 2026
Orbit: 800 x 1320 km, 98.5° (Epoch: 15 May)

Event Time Altitude Azimuth Distance (km) Brightness Sun altitude
Rises 19:30:40 0° 19° (NNE) 4,119 12.8 -13.1°
Reaches altitude 10° 19:33:33 10° 24° (NNE) 3,083 12.1 -13.7°
Maximum altitude 19:40:18 49° 98° (E) 1,351 9.8 -15.0°
Drops below altitude 10° 19:46:13 10° 172° (S) 2,718 11.5 -16.1°
Sets 19:48:37 0° 178° (S) 3,593 12.2 -16.6°
